Notices

What's New in latest Release from April 7th, 2021:

- Updated Glossary, including Speed of Maximum Gust, and Total Hourly Precipitation

- Updated national and regional climate services offices contacts and prices information

- Addition of station inventory lists for 1981-2010, 1971-2000, and 1961-1990 Normals.

If you haven't already, please take our survey and provide feedback about our website: https://eccc.sondage-survey.ca/f/LanguageSelection.aspx?s=442ca660-fcf1-47c0-95a9-59707d6fd709

Hourly Data Report for July 01, 2019

TORONTO CITY
ONTARIO
Current Station Operator: ECCC - MSC

43°40'00.000" N
79°24'00.000" W
112.50 m
6158355
71508
XTO

Download Data

Hourly Data (July 2019)
Hourly Data Report for July 1, 2019
TIME
LST
Temp Definition
°C
Dew Point Definition
°C
Rel Hum Definition
%
Precip. Amount Definition
mm

Wind Dir Definition
10's deg

Wind Spd Definition
km/h
Visibility Definition
km
Stn Press Definition
kPa
Hmdx Definition


Wind Chill Definition


Weather Definition


00:00 18.4 10.6 60 0.0       100.27     LegendNANA
01:00 18.1 10.5 61 0.0       100.28     LegendNANA
02:00 17.1 10.4 65 0.0       100.23     LegendNANA
03:00 16.4 10.7 69 0.0       100.19     LegendNANA
04:00 16.9 10.8 67 0.0       100.19     LegendNANA
05:00 16.5 10.8 69 0.0       100.27     LegendNANA
06:00 16.5 11.3 71 0.0       100.30     LegendNANA
07:00 18.8 11.9 64 0.0       100.33     LegendNANA
08:00 20.8 10.5 52 0.0       100.30     LegendNANA
09:00 22.4 11.8 51 0.0       100.31 25   LegendNANA
10:00 22.8 12.1 51 0.0       100.29 25   LegendNANA
11:00 22.9 12.7 53 0.0       100.30 26   LegendNANA
12:00 23.8 11.5 46 0.0       100.23 26   LegendNANA
13:00 24.3 11.1 44 0.0       100.17 26   LegendNANA
14:00 25.3 12.8 46 0.0       100.11 28   LegendNANA
15:00 25.2 12.8 46 0.0       100.02 28   LegendNANA
16:00 25.7 13.1 46 0.0       99.95 29   LegendNANA
17:00 25.6 12.9 45 0.0       99.88 28   LegendNANA
18:00 24.4 14.1 53 0.0       99.85 28   LegendNANA
19:00 23.9 12.5 49 0.0       99.83 26   LegendNANA
20:00 22.9 13.4 55 0.0       99.84 26   LegendNANA
21:00 22.6 14.5 60 0.0       99.84 26   LegendNANA
22:00 21.9 15.3 66 0.0       99.83 26   LegendNANA
23:00 22.0 16.3 70 0.0       99.75 27   LegendNANA

Notes on Data Quality.

Legend

  • E = Estimated
  • M = Missing
  • NA = Not Available*
  • [empty] = Indicates an unobserved value
Date modified: